Aeroporto :
LOGIN :

Iscrizione | Disclaimer

   EN    FR    IT 

 










Sommario :    VFR   VFR Marginale   IFR   IFR Intensivo   IFR Molto Intensivo
Visibilità : 
Base nubi : 
>= 8 km
>= 3000ft
5 / 8 km
1000 / 3000 ft
1500m / 5 km
500 / 1000 ft
800 / 1500m
200 / 500 ft
< 800m
< 200 ft
Simboli :   Temporali  Nebbia  Neve Forte  Precipitazioni Forti  Vento > 20 kt
SIGMETs :   Varie  Temporali  Ghiacco  Turbolenza  Onda orograficha  Ceneri Vulcaniche






- Altitudine del aeroporto : 610 ft
- Codice IATA : VXO


ESMX - Växjö Kronoberg

ULTIMO METAR :
  • 311850Z AUTO 14008KT 3300 BR OVC002/// 09/09 Q1018

METARs OBSOLETI :
  • 311820Z AUTO 13007KT 100V160 4700 BR OVC003/// 09/09 Q1018
  • 311750Z AUTO 14008KT 9999 OVC004/// 09/09 Q1018
  • 311720Z AUTO 14007KT 6000 BR OVC005/// 09/09 Q1018
  • 311650Z AUTO 15006KT 110V170 9999 OVC004/// 09/09 Q1019 RERA
  • 311620Z AUTO 13007KT 100V160 6000 BR OVC004/// 09/09 Q1019
  • 311550Z AUTO 14006KT 5000 BR BKN002/// OVC004/// 10/09 Q1019

Previsioni scadute.



MetMap, La meteo Aeronautica in un colpo d'occhio ! - Copyright ORBIFLY Dicembre 2007 - Disclaimer

ORBIFLY MET'MAP TEAM :

Programmazione e sviluppo : Alexandra Zaïnal
Concezione : Baudouin d'Aumeries
Aiuto per la programmazione : Marc-Olivier Méhu
Supporto tecnico e logistico : Manuel Goepfert
Aiuto per la traduzione : Arnaldo La Scala

Contatto : metmap@orbifly.com




FONTI E CREDITI :

   NOAA